Starlink 31990

operational
NORAD ID: 60024 Int'l Des: 2024-111 Owner: SPXS Country: US Constellation: starlink
LEOCIRCULAR

About Starlink 31990

Description loading...

Live Position

Loading 3D Globe...

Upcoming Passes

Altitude History

Altitude vs Time

uPlot chart will show altitude changes over time

Two-Line Element Set

1 60024U 24111J 25306.32373628 .00000426 00000-0 26509-4 0 9999
2 60024 53.1611 307.1976 0001358 86.0057 274.1099 15.30193316 79535
Epoch: Nov 2, 2025 • Age: 39 hours

Current Status

Altitude 475.8 km
Velocity 7.63 km/s
Sub-Earth Point 25.29°N, 69.73°W
Launch Date Jun 8, 2024
Age 1.4 years
Type internet

Technical Details

Classification Payload
Mass 730.00 kg
Dry Mass 700.00 kg
Total Mass 730.00 kg
Length 0.30 m
Diameter 4.10 m
Span 29.00 m
Shape Box + pan
Manufacturer SPXS
Bus Type Starlink V2M
Phase Status In Orbit
Owner/State SPXS/US

Large Constellations

Loading constellations...